SWA4105 KSAN-KPHX

Flight info

Callsign SWA4105
Flight time 0h 48m
Altitude 37000
Route ZZOOO4 HOGGZ HYDRR1
Aircraft B737/M-SDE2E3FGHIRWXY/LB1

Departure

Time 2026-04-26 03:31
Airport San Diego International Airport (KSAN)

Arrival

Time 2026-04-26 04:19
Airport Phoenix Sky Harbor International Airport (KPHX)
Time Latitude Longitude Altitude Speed Heading
2026-04-26 03:03 32.73314 -117.19681 21 ft 0 kts 140°
2026-04-26 03:20 32.73320 -117.19687 22 ft 4 kts 136°
2026-04-26 03:20 32.73332 -117.19712 22 ft 4 kts 79°
2026-04-26 03:21 32.73322 -117.19727 23 ft 1 kts 20°
2026-04-26 03:21 32.73318 -117.19729 22 ft 0 kts 20°
2026-04-26 03:25 32.73319 -117.19728 22 ft 1 kts 20°
2026-04-26 03:25 32.73334 -117.19722 23 ft 4 kts 19°
2026-04-26 03:25 32.73371 -117.19707 22 ft 7 kts 19°
2026-04-26 03:25 32.73411 -117.19674 23 ft 7 kts 61°
2026-04-26 03:26 32.73406 -117.19601 22 ft 12 kts 105°
2026-04-26 03:26 32.73379 -117.19490 23 ft 17 kts 106°
2026-04-26 03:26 32.73346 -117.19344 23 ft 19 kts 106°
2026-04-26 03:26 32.73305 -117.19184 21 ft 21 kts 106°
2026-04-26 03:27 32.73265 -117.19020 22 ft 21 kts 106°
2026-04-26 03:27 32.73226 -117.18858 24 ft 20 kts 107°
2026-04-26 03:27 32.73188 -117.18702 22 ft 19 kts 107°
2026-04-26 03:27 32.73151 -117.18550 21 ft 19 kts 106°
2026-04-26 03:28 32.73116 -117.18403 24 ft 18 kts 106°
2026-04-26 03:28 32.73079 -117.18253 21 ft 20 kts 106°
2026-04-26 03:28 32.73038 -117.18085 22 ft 21 kts 106°
2026-04-26 03:28 32.72999 -117.17920 23 ft 20 kts 107°
2026-04-26 03:29 32.72963 -117.17783 22 ft 11 kts 108°
2026-04-26 03:29 32.72949 -117.17705 21 ft 8 kts 85°
2026-04-26 03:29 32.72963 -117.17648 23 ft 7 kts 69°
2026-04-26 03:29 32.72996 -117.17592 22 ft 9 kts 31°
2026-04-26 03:30 32.73036 -117.17641 21 ft 10 kts 287°
2026-04-26 03:30 32.73084 -117.17841 21 ft 60 kts 286°
2026-04-26 03:30 32.73274 -117.18628 24 ft 135 kts 285°
2026-04-26 03:30 32.73556 -117.19794 566 ft 152 kts 286°
2026-04-26 03:31 32.73853 -117.21019 1479 ft 158 kts 282°
2026-04-26 03:31 32.74163 -117.22399 1917 ft 193 kts 284°
2026-04-26 03:31 32.74576 -117.24082 2135 ft 227 kts 284°
2026-04-26 03:31 32.75016 -117.25872 3187 ft 220 kts 285°
2026-04-26 03:32 32.75457 -117.27658 4067 ft 232 kts 285°
2026-04-26 03:32 32.75909 -117.29504 5169 ft 234 kts 284°
2026-04-26 03:32 32.76353 -117.31366 6321 ft 234 kts 284°
2026-04-26 03:32 32.76431 -117.33291 7320 ft 236 kts 257°
2026-04-26 03:33 32.75714 -117.35028 8411 ft 237 kts 232°
2026-04-26 03:33 32.74393 -117.36217 9480 ft 245 kts 207°
2026-04-26 03:33 32.72681 -117.36555 10455 ft 258 kts 180°
2026-04-26 03:33 32.70951 -117.35830 11400 ft 274 kts 153°
2026-04-26 03:34 32.69515 -117.34264 12331 ft 287 kts 136°
2026-04-26 03:34 32.68278 -117.32369 13263 ft 293 kts 133°
2026-04-26 03:34 32.67040 -117.30421 14144 ft 298 kts 134°
2026-04-26 03:34 32.65755 -117.28463 15002 ft 302 kts 136°
2026-04-26 03:35 32.64438 -117.26501 15888 ft 306 kts 136°
2026-04-26 03:35 32.63269 -117.24373 16704 ft 324 kts 118°
2026-04-26 03:35 32.62741 -117.21647 17140 ft 356 kts 101°
2026-04-26 03:35 32.62500 -117.18603 17371 ft 384 kts 99°
2026-04-26 03:36 32.62270 -117.15385 17953 ft 398 kts 99°
2026-04-26 03:36 32.62026 -117.12090 18709 ft 405 kts 96°
2026-04-26 03:36 32.62346 -117.08720 19388 ft 420 kts 75°
2026-04-26 03:36 32.63381 -117.05437 20123 ft 427 kts 69°
2026-04-26 03:37 32.64529 -117.02148 20794 ft 436 kts 69°
2026-04-26 03:37 32.65657 -116.98839 21441 ft 444 kts 70°
2026-04-26 03:37 32.66644 -116.95349 22088 ft 449 kts 83°
2026-04-26 03:37 32.66897 -116.91678 22804 ft 447 kts 94°
2026-04-26 03:38 32.66925 -116.87963 23528 ft 452 kts 96°
2026-04-26 03:38 32.66937 -116.84200 24084 ft 459 kts 95°
2026-04-26 03:38 32.66987 -116.80392 24683 ft 465 kts 95°
2026-04-26 03:38 32.67070 -116.76533 25257 ft 470 kts 94°
2026-04-26 03:39 32.67142 -116.72629 25796 ft 475 kts 96°
2026-04-26 03:39 32.67103 -116.68695 26355 ft 478 kts 98°
2026-04-26 03:39 32.67011 -116.64731 26948 ft 482 kts 98°
2026-04-26 03:39 32.66911 -116.60785 27478 ft 487 kts 98°
2026-04-26 03:40 32.66821 -116.56744 27986 ft 492 kts 98°
2026-04-26 03:40 32.66741 -116.52665 28532 ft 496 kts 98°
2026-04-26 03:40 32.66675 -116.48548 29072 ft 500 kts 98°
2026-04-26 03:40 32.66609 -116.44407 29600 ft 504 kts 98°
2026-04-26 03:41 32.66630 -116.40215 30053 ft 513 kts 92°
2026-04-26 03:41 32.66929 -116.35970 30500 ft 519 kts 89°
2026-04-26 03:41 32.67376 -116.31704 30983 ft 521 kts 87°
2026-04-26 03:41 32.67856 -116.27435 31432 ft 523 kts 88°
2026-04-26 03:42 32.68315 -116.23140 31835 ft 525 kts 88°
2026-04-26 03:42 32.68736 -116.18824 32261 ft 525 kts 89°
2026-04-26 03:42 32.69127 -116.14521 32850 ft 522 kts 89°
2026-04-26 03:42 32.69501 -116.10249 33497 ft 518 kts 90°
2026-04-26 03:43 32.69873 -116.06008 34057 ft 515 kts 90°
2026-04-26 03:43 32.70245 -116.01779 34425 ft 516 kts 89°
2026-04-26 03:43 32.70631 -115.97525 34692 ft 520 kts 89°
2026-04-26 03:43 32.71027 -115.93250 34949 ft 523 kts 89°
2026-04-26 03:44 32.71428 -115.88942 35224 ft 526 kts 89°
2026-04-26 03:44 32.71830 -115.84616 35520 ft 528 kts 89°
2026-04-26 03:44 32.72226 -115.80333 35822 ft 529 kts 89°
2026-04-26 03:44 32.72625 -115.75983 36195 ft 529 kts 89°
2026-04-26 03:45 32.73020 -115.71651 36611 ft 528 kts 89°
2026-04-26 03:45 32.73413 -115.67310 36912 ft 527 kts 88°
2026-04-26 03:45 32.74196 -115.58582 36830 ft 537 kts 88°
2026-04-26 03:46 32.74973 -115.49637 36825 ft 550 kts 90°
2026-04-26 03:47 32.75362 -115.35926 36804 ft 554 kts 95°
2026-04-26 03:47 32.75475 -115.26848 36800 ft 553 kts 94°
2026-04-26 03:48 32.75620 -115.19205 36797 ft 552 kts 94°
2026-04-26 03:48 32.75858 -115.08618 36795 ft 550 kts 94°
2026-04-26 03:49 32.76026 -115.01020 36790 ft 548 kts 94°
2026-04-26 03:49 32.76213 -114.92019 36790 ft 546 kts 94°
2026-04-26 03:50 32.76391 -114.82975 36799 ft 545 kts 94°
2026-04-26 03:50 32.76561 -114.74036 36803 ft 544 kts 94°
2026-04-26 03:51 32.76728 -114.65127 36586 ft 529 kts 94°
2026-04-26 03:51 32.76808 -114.60785 36155 ft 524 kts 94°
2026-04-26 03:51 32.76878 -114.56464 35635 ft 521 kts 95°
2026-04-26 03:51 32.76939 -114.52166 35122 ft 519 kts 95°
2026-04-26 03:52 32.76996 -114.47902 34666 ft 515 kts 95°
2026-04-26 03:52 32.77052 -114.43666 34262 ft 510 kts 95°
2026-04-26 03:52 32.77107 -114.39466 33860 ft 506 kts 96°
2026-04-26 03:52 32.77160 -114.35301 33399 ft 502 kts 96°
2026-04-26 03:53 32.77211 -114.31176 32945 ft 498 kts 96°
2026-04-26 03:53 32.77261 -114.27070 32480 ft 494 kts 96°
2026-04-26 03:53 32.77310 -114.23002 32048 ft 491 kts 96°
2026-04-26 03:53 32.77356 -114.18962 31646 ft 486 kts 96°
2026-04-26 03:54 32.77401 -114.14960 31249 ft 482 kts 96°
2026-04-26 03:54 32.77445 -114.11029 30842 ft 479 kts 95°
2026-04-26 03:54 32.77490 -114.07052 30405 ft 476 kts 94°
2026-04-26 03:54 32.77722 -114.03122 30051 ft 476 kts 88°
2026-04-26 03:55 32.78155 -113.99234 29824 ft 475 kts 86°
2026-04-26 03:55 32.78655 -113.95327 29567 ft 482 kts 85°
2026-04-26 03:55 32.79156 -113.91375 29292 ft 483 kts 86°
2026-04-26 03:55 32.79628 -113.87438 29002 ft 479 kts 86°
2026-04-26 03:56 32.80068 -113.83532 28724 ft 475 kts 87°
2026-04-26 03:56 32.80488 -113.79655 28444 ft 472 kts 87°
2026-04-26 03:56 32.80902 -113.75798 28175 ft 469 kts 87°
2026-04-26 03:56 32.81310 -113.72015 28003 ft 464 kts 87°
2026-04-26 03:57 32.81871 -113.68227 27692 ft 470 kts 76°
2026-04-26 03:57 32.83344 -113.64745 26934 ft 470 kts 49°
2026-04-26 03:57 32.85573 -113.62003 26441 ft 455 kts 38°
2026-04-26 03:57 32.87905 -113.59507 25915 ft 447 kts 38°
2026-04-26 03:58 32.90163 -113.56995 25436 ft 443 kts 41°
2026-04-26 03:58 32.92339 -113.54375 24950 ft 448 kts 43°
2026-04-26 03:58 32.94457 -113.51653 24450 ft 448 kts 45°
2026-04-26 03:58 32.96531 -113.48878 23943 ft 448 kts 46°
2026-04-26 03:59 32.98582 -113.46086 23446 ft 447 kts 47°
2026-04-26 03:59 33.00621 -113.43304 23063 ft 441 kts 46°
2026-04-26 03:59 33.02647 -113.40552 22379 ft 442 kts 46°
2026-04-26 03:59 33.04659 -113.37829 22166 ft 431 kts 46°
2026-04-26 04:00 33.06642 -113.35147 21601 ft 429 kts 46°
2026-04-26 04:00 33.08595 -113.32510 21315 ft 420 kts 46°
2026-04-26 04:00 33.10512 -113.29918 21034 ft 413 kts 46°
2026-04-26 04:00 33.12403 -113.27362 20778 ft 408 kts 46°
2026-04-26 04:01 33.14276 -113.24828 20527 ft 406 kts 46°
2026-04-26 04:01 33.16137 -113.22309 20277 ft 404 kts 46°
2026-04-26 04:01 33.17992 -113.19794 20028 ft 403 kts 47°
2026-04-26 04:01 33.19854 -113.17269 19798 ft 405 kts 47°
2026-04-26 04:02 33.21523 -113.15002 19573 ft 403 kts 47°
2026-04-26 04:02 33.22630 -113.13499 19409 ft 401 kts 47°
2026-04-26 04:02 33.24479 -113.11017 19168 ft 397 kts 46°
2026-04-26 04:02 33.26271 -113.08523 18880 ft 395 kts 54°
2026-04-26 04:03 33.27384 -113.05572 18641 ft 387 kts 80°
2026-04-26 04:03 33.27668 -113.02420 18423 ft 379 kts 93°
2026-04-26 04:03 33.27720 -112.99272 18185 ft 379 kts 94°
2026-04-26 04:03 33.27754 -112.96122 17916 ft 379 kts 94°
2026-04-26 04:04 33.27800 -112.92970 17629 ft 378 kts 93°
2026-04-26 04:04 33.27864 -112.89852 17376 ft 373 kts 93°
2026-04-26 04:04 33.27938 -112.86773 17218 ft 367 kts 92°
2026-04-26 04:04 33.28012 -112.83744 17077 ft 367 kts 92°
2026-04-26 04:05 33.28124 -112.80678 16795 ft 369 kts 89°
2026-04-26 04:05 33.28370 -112.77680 16462 ft 364 kts 87°
2026-04-26 04:05 33.28502 -112.76352 16322 ft 361 kts 86°
2026-04-26 04:05 33.28810 -112.73391 16017 ft 358 kts 86°
2026-04-26 04:06 33.29115 -112.70441 15688 ft 357 kts 86°
2026-04-26 04:06 33.29409 -112.67508 15394 ft 354 kts 87°
2026-04-26 04:06 33.29695 -112.64591 15078 ft 352 kts 87°
2026-04-26 04:06 33.29972 -112.61691 14767 ft 351 kts 87°
2026-04-26 04:07 33.30243 -112.58798 14453 ft 349 kts 87°
2026-04-26 04:07 33.30511 -112.55924 14136 ft 347 kts 87°
2026-04-26 04:07 33.30776 -112.53067 13820 ft 344 kts 87°
2026-04-26 04:07 33.31035 -112.50264 13514 ft 343 kts 87°
2026-04-26 04:08 33.31295 -112.47441 13185 ft 341 kts 87°
2026-04-26 04:08 33.31552 -112.44642 12863 ft 337 kts 87°
2026-04-26 04:08 33.31807 -112.41875 12554 ft 333 kts 87°
2026-04-26 04:08 33.32057 -112.39140 12262 ft 329 kts 87°
2026-04-26 04:09 33.32303 -112.36442 11966 ft 325 kts 87°
2026-04-26 04:09 33.32546 -112.33766 11678 ft 321 kts 87°
2026-04-26 04:09 33.32779 -112.31217 11394 ft 319 kts 87°
2026-04-26 04:09 33.33020 -112.28577 11125 ft 320 kts 87°
2026-04-26 04:10 33.33260 -112.25934 10839 ft 321 kts 87°
2026-04-26 04:10 33.33500 -112.23287 10549 ft 317 kts 87°
2026-04-26 04:10 33.33736 -112.20689 10256 ft 312 kts 87°
2026-04-26 04:10 33.33968 -112.18134 9974 ft 305 kts 87°
2026-04-26 04:11 33.34194 -112.15638 9701 ft 300 kts 87°
2026-04-26 04:11 33.34416 -112.13169 9404 ft 295 kts 87°
2026-04-26 04:11 33.34632 -112.10754 9122 ft 290 kts 87°
2026-04-26 04:11 33.34813 -112.08426 8914 ft 278 kts 91°
2026-04-26 04:12 33.34809 -112.06148 8546 ft 269 kts 96°
2026-04-26 04:12 33.34749 -112.03961 8283 ft 259 kts 96°
2026-04-26 04:12 33.34694 -112.01814 8029 ft 257 kts 95°
2026-04-26 04:12 33.34652 -111.99684 7758 ft 255 kts 95°
2026-04-26 04:13 33.34618 -111.97568 7492 ft 253 kts 95°
2026-04-26 04:13 33.34589 -111.95467 7226 ft 252 kts 94°
2026-04-26 04:13 33.34559 -111.93378 6934 ft 251 kts 95°
2026-04-26 04:13 33.34508 -111.91281 6642 ft 253 kts 95°
2026-04-26 04:14 33.34453 -111.89218 6425 ft 245 kts 95°
2026-04-26 04:14 33.34402 -111.87188 6073 ft 244 kts 94°
2026-04-26 04:14 33.34361 -111.85165 5694 ft 243 kts 93°
2026-04-26 04:14 33.34476 -111.83153 5309 ft 244 kts 71°
2026-04-26 04:15 33.35470 -111.81583 5089 ft 240 kts 32°
2026-04-26 04:15 33.37017 -111.80912 4804 ft 238 kts
2026-04-26 04:15 33.38605 -111.81215 4485 ft 228 kts 332°
2026-04-26 04:15 33.39833 -111.82286 4196 ft 218 kts 308°
2026-04-26 04:16 33.40647 -111.83776 3924 ft 211 kts 296°
2026-04-26 04:16 33.41331 -111.85327 3651 ft 211 kts 295°
2026-04-26 04:16 33.42002 -111.86873 3378 ft 207 kts 296°
2026-04-26 04:16 33.42604 -111.88379 3053 ft 196 kts 285°
2026-04-26 04:17 33.42818 -111.89923 2796 ft 182 kts 275°
2026-04-26 04:17 33.42885 -111.91381 2558 ft 168 kts 270°
2026-04-26 04:17 33.42886 -111.92694 2361 ft 148 kts 269°
2026-04-26 04:17 33.42882 -111.93874 2147 ft 134 kts 270°
2026-04-26 04:18 33.42885 -111.94962 1999 ft 132 kts 269°
2026-04-26 04:18 33.42873 -111.96073 1820 ft 134 kts 269°
2026-04-26 04:18 33.42878 -111.97200 1636 ft 137 kts 270°
2026-04-26 04:18 33.42880 -111.98343 1465 ft 139 kts 269°
2026-04-26 04:19 33.42879 -111.99508 1270 ft 141 kts 270°
2026-04-26 04:19 33.42885 -112.00681 1126 ft 135 kts 269°
2026-04-26 04:19 33.42885 -112.01623 1124 ft 85 kts 270°
2026-04-26 04:19 33.42884 -112.02077 1122 ft 22 kts 276°
2026-04-26 04:20 33.42927 -112.02144 1117 ft 10 kts 335°
2026-04-26 04:20 33.42989 -112.02131 1114 ft 10 kts 52°
2026-04-26 04:20 33.42995 -112.02054 1119 ft 9 kts 90°
2026-04-26 04:20 33.42995 -112.01978 1121 ft 9 kts 90°
2026-04-26 04:21 33.42995 -112.01888 1121 ft 13 kts 90°
2026-04-26 04:21 33.42995 -112.01777 1122 ft 13 kts 85°
2026-04-26 04:21 33.42994 -112.01653 1120 ft 17 kts 90°
2026-04-26 04:21 33.42994 -112.01498 1124 ft 20 kts 89°
2026-04-26 04:22 33.42995 -112.01330 1118 ft 21 kts 89°
2026-04-26 04:22 33.42994 -112.01152 1123 ft 22 kts 90°
2026-04-26 04:22 33.42994 -112.00973 1124 ft 21 kts 90°
2026-04-26 04:22 33.42995 -112.00799 1123 ft 21 kts 90°
2026-04-26 04:23 33.42996 -112.00630 1123 ft 20 kts 89°
2026-04-26 04:23 33.42995 -112.00468 1123 ft 19 kts 92°
2026-04-26 04:23 33.43005 -112.00350 1119 ft 13 kts 57°
2026-04-26 04:23 33.43088 -112.00322 1120 ft 13 kts
2026-04-26 04:24 33.43170 -112.00303 1120 ft 12 kts 38°
2026-04-26 04:24 33.43212 -112.00218 1124 ft 12 kts 77°
2026-04-26 04:24 33.43214 -112.00121 1121 ft 11 kts 90°
2026-04-26 04:24 33.43253 -112.00052 1118 ft 11 kts 11°
2026-04-26 04:25 33.43328 -112.00040 1120 ft 11 kts
2026-04-26 04:25 33.43397 -112.00041 1119 ft 2 kts
2026-04-26 04:25 33.43398 -112.00041 1118 ft 0 kts
2026-04-26 04:26 33.43408 -112.00041 1119 ft 2 kts 359°
2026-04-26 04:26 33.43425 -112.00036 1118 ft 3 kts 30°
2026-04-26 04:27 33.43431 -112.00017 1122 ft 2 kts 82°
2026-04-26 04:27 33.43431 -111.99997 1123 ft 1 kts 91°
2026-04-26 04:27 33.43431 -111.99993 1123 ft 0 kts 91°